Regional Weather Roundup
Issued by NWS

Home | Current Version | Previous Version | Text Only | Print | Product List | Glossary On
Versions: 1 2 3 4 5 6 7 8 9 10 11 12 13 14 15 16 17 18 19 20 21 22 23 24 25 26 27 28 29 30 31 32 33 34 35 36 37 38 39 40 41 42 43 44 45 46 47 48 49 50
000
ASUS45 KBOU 291007
RWRCO

WEATHER ROUNDUP FOR COLORADO
NATIONAL WEATHER SERVICE DENVER/BOULDER CO
400 AM MDT MON MAY 29 2017

NOTE: "FAIR" INDICATES FEW OR NO CLOUDS BELOW 12000 FEET WITH NO
SIGNIFICANT WEATHER AND/OR OBSTRUCTIONS TO VISIBILITY.

COZ001>005-013-030-031-291100-
...NORTHWEST COLORADO...

CITY           SKY/WX    TMP DP  RH WIND       PRES   REMARKS
CRAIG          FAIR      33  30  88 CALM      30.27S
HAYDEN         FAIR      41  30  65 SE12      30.27S
MEEKER         FAIR      37  31  78 E5        30.26S
RABBIT EARS PA FAIR      37  27  65 SE3       30.42F
STEAMBOAT SPGS FAIR      36  32  85 CALM      30.29S
WALDEN           N/A     34  30  86 S5        30.36F WCI  30
$$

COZ006>008-011-291100-
...WEST CENTRAL VALLEYS...

CITY           SKY/WX    TMP DP  RH WIND       PRES   REMARKS
GRAND JUNCTION FAIR      53  28  38 CALM      30.16R
MONTROSE       FAIR      49  23  36 SE12      30.22S
EAGLE          FAIR      37  30  75 E5        30.32S
RIFLE          FAIR      45  28  51 CALM      30.23S
DELTA          FAIR      48  28  45 E6        30.20S
NUCLA          FAIR      46  21  36 CALM      30.25R
$$

COZ017>023-064>068-291100-
...SOUTHWEST COLORADO...

CITY           SKY/WX    TMP DP  RH WIND       PRES   REMARKS
DURANGO        FAIR      36  21  54 NE3       30.23S
CORTEZ         FAIR      37  28  70 E6        30.20S
PAGOSA SPRINGS FAIR      38  19  44 CALM      30.29S
TELLURIDE      FAIR      40  19  44 SE6       30.38S
WOLF CREEK PAS FAIR      36  12  38 N5        30.52F
$$

COZ009-010-012-014-032>034-037-058>063-291100-
...CENTRAL COLORADO...

CITY           SKY/WX    TMP DP  RH WIND       PRES   REMARKS
ASPEN          FAIR      36  28  73 SW9       30.31S
BUENA VISTA    FAIR      38  26  61 NW8       30.36S
COPPER MTN     FAIR      36  21  55 S13       30.49S
BERTHOUD PASS  FAIR      28  18  64 W10       30.49F WCI  19
COTTONWOOD PAS FAIR      43  23  45 W5        30.41F
GUNNISON       FAIR      33  27  78 CALM      30.34S
KREMMLING      FAIR      39  34  81 CALM      30.34S
LEADVILLE      FAIR      27  21  78 CALM      30.40F
MONARCH PASS   FAIR      32  27  80 E15       30.58F WCI  22
SALIDA         FAIR      44  28  52 CALM      30.41F
SUNLIGHT       FAIR      37  21  52 CALM      30.47S
WILKERSON PASS FAIR      32  27  80 S8        30.49F WCI  25
$$

COZ069>075-291100-
...SAN LUIS VALLEY/SANGRE DE CRISTO MOUNTAINS...

CITY           SKY/WX    TMP DP  RH WIND       PRES   REMARKS
ALAMOSA        FAIR      37  31  78 E3        30.28F
DEL NORTE      FAIR      40  20  44 W8        30.31F
LA VETA PASS   FAIR      37  27  65 SW7       30.52F
SAGUACHE       FAIR      39  21  48 N10       30.31S
$$

COZ035-036-038>040-291100-
...NORTHERN COLORADO FRONT RANGE...

CITY           SKY/WX    TMP DP  RH WIND       PRES   REMARKS
DENVER INTL AP MOCLDY    47  42  83 SW7       30.27S
DMNS CITY PARK   N/A     50  41  71 SE7       30.27S
AURORA         PTCLDY    45  41  84 S5        30.28F
FRONT RANGE AP FAIR      48  45  87 SW7       30.28S
ERIE MUNI ARPT FAIR      47  45  93 CALM      30.26F
BOULDER MUN AP FAIR      46  45  93 NE5       30.26F
CENTENNIAL     FAIR      43  40  89 S6        30.28F
BROOMFIELD     FAIR      46  43  87 W7        30.28S
FORT COLLINS   CLOUDY    50  43  77 W6        30.26F
LONGMONT       FAIR      47  43  84 W6        30.28F
$$

COZ041-046-047-076>085-087-088-291100-
...PIKES PEAK/PALMER DIVIDE AND SOUTHERN FOOTHILLS...

CITY           SKY/WX    TMP DP  RH WIND       PRES   REMARKS
COLO. SPRINGS  FAIR      49  38  65 NW9       30.30F
A. F. ACADEMY  FAIR      40  35  82 N9        30.30F
SCHRIEVER AFB  FAIR      47  38  71 N15       30.29F
CHEYENNE MTN   FAIR      50  34  53 NW12      30.26F
ELLICOTT       FAIR     N/A N/A N/A N6        30.27F
FALCON         FAIR      45  36  69 N8        30.32S
FORT CARSON    FAIR      47  37  67 N9        30.27F
LIMON          FAIR      44  42  93 W9        30.25F
MONUMENT HILL  FAIR      36  34  93 W3        30.33F
CANON CITY     NOT AVBL
WALSENBURG     FAIR      43  39  87 N6        30.27R
TRINIDAD       FAIR      44  34  67 NW8       30.25S
$$

COZ042>045-048>051-090-091-291100-
...NORTHEAST COLORADO...

CITY           SKY/WX    TMP DP  RH WIND       PRES   REMARKS
GREELEY ARPT   NOT AVBL
AKRON          FAIR      46  42  86 W10       30.23R
BURLINGTON     MOCLDY    53  47  79 N5        30.18F
WRAY           FAIR      46  46 100 W6        30.17R
YUMA           CLOUDY    45  36  70 W9        30.19R
STERLING       NOT AVBL
HOLYOKE        NOT AVBL
FORT MORGAN    CLOUDY    50  43  77 W9        30.24S
$$

COZ086-089-092>099-291100-
...SOUTHEAST COLORADO...

CITY           SKY/WX    TMP DP  RH WIND       PRES   REMARKS
PUEBLO         FAIR      51  41  68 CALM      30.23S
LA JUNTA       FAIR      51  45  79 S3        30.21F
LAMAR          FAIR      50  43  77 CALM      30.17F
SPRINGFIELD      N/A     54  44  69 N8        30.21R
$$



USA.gov is the U.S. government's official web portal to all federal, state and local government web resources and services.